Skip Page Navigation
NASA JPL Caltech
NASA Logo - Jet Propulsion Laboratory + View the NASA Portal
+ Near-Earth Object (NEO) Program
Search JPL
JPL Home Earth Solar System Stars & Galaxies Technology
JPL Solar System Dynamics
BODIES ORBITS EPHEMERIDES TOOLS PHYSICAL DATA DISCOVERY FAQ SITE MAP
JPL Small-Body Database Browser
Search: [ help ]  
29075 (1950 DA)
Classification: Apollo [NEO, PHA]          SPK-ID: 2029075
Ephemeris | Orbit Diagram | Orbital Elements | Physical Parameters | Discovery Circumstances | Close-Approach Data ]

[ hide orbit diagram ]
Orbit Diagram
Note: Make sure you have Java enabled on your browser to see the applet. This applet is provided as a 3D orbit visualization tool. The applet was implemented using 2-body methods, and hence should not be used for determining accurate long-term trajectories (over several years or decades) or planetary encounter circumstances. For accurate long-term ephemerides, please instead use our Horizons system.
Orbit Viewer

Additional Notes: the orbits shown in the applet are color coded. The planets are white lines, and the asteroid/comet is a blue line. The bright white line indicates the portion of the orbit that is above the ecliptic plane, and the darker portion is below the ecliptic plane. Likewise for the asteroid/comet orbit, the light blue indicates the portion above the ecliptic plane, and the dark blue the portion below the ecliptic plane.

Orbit Viewer applet originally written and kindly provided by Osamu Ajiki (AstroArts), and further modified by Ron Baalke (JPL).


Orbital Elements at Epoch 2456400.5 (2013-Apr-18.0) TDB
Reference: JPL 117 (heliocentric ecliptic J2000)
 Element Value Uncertainty (1-sigma)   Units 
e .5081704285548782 3.463e-08  
a 1.69827000914538 1.2924e-09 AU
q .8352594107960755 5.8533e-08 AU
i 12.1734569783929 6.4343e-06 deg
node 356.7253491844386 9.2891e-06 deg
peri 224.6164641535601 9.9718e-06 deg
M 153.2391910192107 2.9055e-06 deg
tp 2456056.406960975668
(2012-May-08.90696098)
6.2313e-06 JED
period 808.3669277086567
2.21
9.2277e-07
2.526e-09
d
yr
n .445342316292469 5.0837e-10 deg/d
Q 2.561280607494685 1.9492e-09 AU
  Orbit Determination Parameters
   # obs. used (total)      506  
   # delay obs. used      8  
   # Doppler obs. used      5  
   data-arc span      22898 days (62.69 yr)  
   first obs. used      1950-02-23  
   last obs. used      2012-11-02  
   planetary ephem.      DE405  
   SB-pert. ephem.      SB405-CPV-2  
   condition code      0  
   fit RMS      .44454  
   data source      ORB  
   producer      Otto Matic  
   solution date      2013-Apr-29 15:38:04  

Additional Information
 Earth MOID = .0407853 AU 
 T_jup = 4.026 
[ show covariance matrix ]

Ephemeris | Orbit Diagram | Orbital Elements | Physical Parameters | Discovery Circumstances | Close-Approach Data ]

Physical Parameter Table
Parameter Symbol Value Units Sigma Reference Notes
absolute magnitude H 17.0 mag n/a PDS3 (MPO 16171)  
rotation period rot_per 2.1216 h n/a Asteroid Lightcurve DataBase (Rev. 2013-May-01) Published Reference List:
[Pravec, P.; Wolf, M.; Sarounova, L. (2001) http://www.asu.cas.cz/~ppravec/neo.htm]
[Busch, M.W.; Giorgini, J.D.; Ostro, S.J.; Benner, L.A.M.; et al. (2007) Icarus 190, 608-621.]

29075 (1950 DA)          Discovered 1950-Feb-22 by Wirtanen, C. A. at Mt. Hamilton (662)
Reference: 20011002/Numbers.arcLast Updated: 2004-04-19

[ show close-approach data ]
Alternate Designations
 1950 DA = 2000 YK66 
Ephemeris | Orbit Diagram | Orbital Elements | Physical Parameters | Discovery Circumstances | Close-Approach Data ]
ABOUT SSD CREDITS/AWARDS PRIVACY/COPYRIGHT GLOSSARY LINKS
FirstGov 2013-May-23 08:43 UT
(server date/time)  
NASA Home Page
Site Manager:   Donald K. Yeomans
Webmaster  Alan B. Chamberlin